Home > Time Zones > World Clock > Weather > Spain > Lugo > Past weeks

Flag for Spain Weather past 2 weeks in Lugo, Galicia, Spain

Now
50 °F

Passing clouds.


Feels Like: 48 °F
Forecast: 35 / 49 °F
Wind: 6 mph from Northwest

Location: Santiago / Labacolla

Current Time: Dec 27, 2014 at 11:16:54 PM

Latest Report: Dec 27, 2014 at 10:30 PM


Visibility: N/A

Pressure: 30.27 "Hg

Humidity: 94%

Dew point: 48 °F

Location of LugoLocation

Historic Weather in Lugo — Graph

°F

Lugo temperature yesterday

Maximum temperature yesterday: 48 °F (at 3:00 PM)
Minimum temperature yesterday: 41 °F (at 12:00 AM)
Average temperature yesterday: 45 °F

Past Weeks' High & Low Weather Summary

 TemperatureHumidityPressure
High57 °F (Dec 21, 3:00 PM)100% (Dec 13, 1:30 AM)30.63 "Hg (Dec 13, 1:30 AM)
Low34 °F (Dec 15, 4:00 AM)72% (Dec 21, 3:00 PM)29.71 "Hg (Dec 12, 10:30 PM)
Average47 °F94%30.36 "Hg
* Reported Dec 12 10:00 PM — Dec 27 10:00 PM, Lugo, Weather by CustomWeather, © 2014

Note: Actual official high and low records may vary slightly from our data, if they occured in-between our weather recording intervals... More about our weather records

Advertising

Lugo weather history for previous 24 hours

 ConditionsComfort  
Time TempWeatherWind HumidityBarometerVisibility
10:00 PM
Dec 27
50 °FPassing clouds.5 mph94%30.27 "HgN/A
9:30 PM50 °FPassing clouds.6 mph94%30.27 "HgN/A
9:00 PM50 °FPassing clouds.7 mph94%30.30 "HgN/A
8:30 PM50 °FPassing clouds.5 mph94%30.30 "HgN/A
8:00 PM50 °FPartly cloudy.6 mph94%30.30 "HgN/A
7:30 PM50 °FPassing clouds.7 mph94%30.30 "HgN/A
7:00 PM50 °FPartly cloudy.5 mph94%30.30 "HgN/A
6:30 PM50 °FPartly cloudy.6 mph94%30.30 "HgN/A
6:00 PM50 °FBroken clouds.7 mph94%30.30 "HgN/A
5:30 PM50 °FDrizzle. Partly sunny.6 mph94%30.30 "HgN/A
5:00 PM50 °FDrizzle. Broken clouds.7 mph94%30.30 "HgN/A
4:30 PM50 °FBroken clouds.5 mph94%30.33 "HgN/A
4:00 PM50 °FPartly sunny.6 mph94%30.33 "HgN/A
3:30 PM50 °FPartly sunny.5 mph94%30.33 "HgN/A
3:00 PM50 °FPartly sunny.6 mph94%30.33 "HgN/A
2:30 PM50 °FPartly sunny.6 mph94%30.36 "HgN/A
2:00 PM50 °FPartly sunny.5 mph94%30.36 "HgN/A
1:30 PM50 °FPartly sunny.6 mph94%30.36 "HgN/A
1:00 PM48 °FMostly cloudy.6 mph100%30.39 "HgN/A
12:30 PM48 °FFog.2 mph100%30.42 "HgN/A
12:00 PM46 °FPartly sunny.1 mph100%30.42 "HgN/A
11:30 AM46 °FPartly sunny.1 mph100%30.42 "HgN/A
11:00 AM45 °FPartly sunny.1 mph100%30.42 "HgN/A
10:30 AM45 °FFog.2 mph100%30.42 "Hg0 mi
10:00 AM45 °FSnow. Cloudy.1 mph100%30.45 "Hg4 mi
9:30 AM43 °FSnow. Cloudy.1 mph100%30.45 "Hg4 mi
9:00 AM43 °FSnow. Passing clouds.1 mph100%30.45 "Hg4 mi
8:30 AM43 °FFog.1 mph100%30.42 "Hg2 mi
8:00 AM43 °FFog.2 mph100%30.42 "Hg1 mi
7:30 AM41 °FFog.No wind100%30.42 "Hg1 mi
7:00 AM43 °FFog.No wind100%30.42 "Hg1 mi
6:30 AM43 °FFog.No wind100%30.45 "Hg1 mi
6:00 AM41 °FFog.3 mph100%30.42 "Hg1 mi
5:30 AM41 °FFog.3 mph100%30.45 "Hg1 mi
4:30 AM43 °FFog.2 mph100%30.45 "Hg1 mi
4:00 AM43 °FFog.2 mph100%30.45 "Hg2 mi
3:30 AM43 °FFog.1 mph100%30.45 "Hg1 mi
3:00 AM41 °FFog.3 mph100%30.45 "Hg1 mi
2:30 AM41 °FFog.2 mph100%30.45 "Hg1 mi
2:00 AM41 °FFog.1 mph100%30.48 "Hg1 mi
1:30 AM43 °FFog.No wind100%30.51 "Hg1 mi
1:00 AM45 °FFog.No wind100%30.51 "Hg3 mi
12:30 AM45 °FFog.1 mph100%30.51 "Hg2 mi
12:00 AM45 °FFog.No wind100%30.51 "Hg1 mi
11:30 PM
Dec 26
45 °FFog.1 mph100%30.51 "Hg1 mi
11:00 PM45 °FFog.1 mph100%30.51 "Hg1 mi
Weather by CustomWeather, © 2014

See weather overviewHow to use our weather pages